EW4337 Weather Reports


Display with metric or nautical units.
time (UTC)temp
F
wind
direction
speed
MPH
gust
MPH
rain 1hr
in
rain 24hr
in
rain mn
in
humidity
%
barometer
mb
20260506082202 55 30 5.0 12.0 0.00 0.00 0.00 67 1008.0
20260506081702 55 26 3.0 12.0 0.00 0.00 0.00 68 1007.9
20260506081202 54 39 7.0 14.0 0.00 0.00 0.00 69 1007.9
20260506080702 54 37 9.0 16.0 0.00 0.00 0.00 70 1007.9
20260506080202 54 49 6.0 14.0 0.00 0.00 0.00 72 1007.9
20260506073202 53 62 6.0 15.0 0.00 0.00 0.00 81 1007.7
20260506072702 53 45 5.0 10.0 0.00 0.00 0.00 82 1007.7
20260506072202 53 42 6.0 14.0 0.00 0.00 0.00 82 1007.7
20260506070702 52 30 3.0 10.0 0.00 0.00 0.00 85 1007.7
20260506070202 52 18 6.0 12.0 0.00 0.00 0.00 86 1007.6
20260506062202 50 352 2.0 8.0 0.00 0.00 0.00 89 1007.5
20260506061702 50 10 6.0 12.0 0.00 0.00 0.00 90 1007.5
20260506061203 50 15 4.0 10.0 0.00 0.00 0.00 90 1007.5
20260506060702 49 340 2.0 12.0 0.00 0.00 0.00 91 1007.5
20260506060202 49 356 3.0 5.0 0.00 0.00 0.00 91 1007.5
20260506051202 47 345 3.0 6.0 0.00 0.00 0.00 92 1007.5
20260506050703 47 351 2.0 5.0 0.00 0.00 0.00 92 1007.5
20260506050202 47 340 2.0 6.0 0.00 0.00 0.00 92 1007.5
20260506044703 47 346 2.0 7.0 0.00 0.00 0.00 92 1007.5
20260506043702 47 328 3.0 6.0 0.00 0.00 0.00 92 1007.5
20260506043203 47 336 2.0 6.0 0.00 0.00 0.00 92 1007.5
20260506041203 47 326 2.0 5.0 0.00 0.00 0.00 91 1007.5
20260506040703 47 339 3.0 5.0 0.00 0.00 0.00 91 1007.5
20260506040204 47 331 2.0 6.0 0.00 0.00 0.00 91 1007.5
20260506035704 47 333 2.0 3.0 0.00 0.00 0.00 91 1007.5
20260506035203 48 330 3.0 5.0 0.00 0.00 0.00 91 1007.5
20260506034702 48 338 3.0 5.0 0.00 0.00 0.00 91 1007.5
20260506034203 48 330 3.0 6.0 0.00 0.00 0.00 91 1007.5
20260506033703 48 350 2.0 5.0 0.00 0.00 0.00 91 1007.6
20260506032703 48 344 2.0 6.0 0.00 0.00 0.00 91 1007.6
20260506032203 48 336 3.0 6.0 0.00 0.00 0.00 90 1007.6
20260506031203 48 334 2.0 6.0 0.00 0.00 0.00 90 1007.7
20260506030703 48 341 3.0 6.0 0.00 0.00 0.00 90 1007.7
20260506025702 48 337 3.0 10.0 0.00 0.00 0.00 89 1007.8
20260506025203 48 321 3.0 8.0 0.00 0.00 0.00 89 1007.7
20260506024203 48 334 4.0 8.0 0.00 0.00 0.00 88 1007.9
20260506023703 48 342 3.0 8.0 0.00 0.00 0.00 88 1007.9
20260506023204 48 347 4.0 8.0 0.00 0.00 0.00 87 1007.9
20260506022703 48 342 5.0 10.0 0.00 0.00 0.00 87 1007.9
20260506022203 48 337 5.0 10.0 0.00 0.00 0.00 87 1008.0
20260506021703 49 337 5.0 8.0 0.00 0.00 0.00 87 1008.0
20260506021203 49 341 4.0 8.0 0.00 0.00 0.00 86 1008.1
20260506020704 49 339 3.0 8.0 0.00 0.00 0.00 86 1008.0
20260506020203 49 358 3.0 9.0 0.00 0.00 0.00 86 1008.1
20260506015704 49 354 3.0 5.0 0.00 0.00 0.00 86 1008.1
20260506015203 49 335 3.0 7.0 0.00 0.00 0.00 86 1008.2
20260506014703 49 353 3.0 9.0 0.00 0.00 0.00 86 1008.2
20260506014203 50 355 4.0 8.0 0.00 0.00 0.00 86 1008.2
20260506013704 50 349 5.0 9.0 0.00 0.00 0.00 86 1008.2
20260506013203 50 314 3.0 8.0 0.00 0.00 0.00 86 1008.2
20260506012704 50 334 4.0 8.0 0.00 0.00 0.00 86 1008.2
20260506012203 50 344 3.0 8.0 0.00 0.00 0.00 86 1008.2
20260506011704 50 340 3.0 9.0 0.00 0.00 0.00 86 1008.3
20260506005704 50 344 3.0 10.0 0.00 0.00 0.00 86 1008.3
20260506005203 50 332 5.0 9.0 0.00 0.00 0.00 85 1008.4
20260506004703 50 337 5.0 10.0 0.00 0.00 0.00 85 1008.5
20260506004205 50 340 3.0 8.0 0.00 0.00 0.00 85 1008.5
20260506003204 50 348 3.0 8.0 0.00 0.00 0.00 85 1008.5
20260506002704 50 353 3.0 10.0 0.00 0.00 0.00 85 1008.6
20260506002204 50 342 5.0 10.0 0.00 0.00 0.00 85 1008.7
20260506001704 50 352 3.0 8.0 0.00 0.00 0.00 85 1008.7
20260506001203 50 10 3.0 9.0 0.00 0.00 0.00 85 1008.8
20260506000205 50 353 3.0 10.0 0.00 0.00 0.00 85 1008.9
20260505235704 50 9 3.0 9.0 0.00 0.00 0.00 85 1008.9
20260505234204 50 338 3.0 9.0 0.00 0.00 0.00 84 1008.9
20260505233704 50 1 3.0 10.0 0.00 0.00 0.00 84 1008.9
20260505233204 50 338 3.0 8.0 0.00 0.00 0.00 84 1008.9
20260505232704 50 347 3.0 9.0 0.00 0.00 0.00 84 1008.9
20260505232203 50 352 3.0 7.0 0.00 0.00 0.00 84 1009.0
20260505231704 50 343 3.0 8.0 0.00 0.00 0.00 84 1009.0
20260505231204 50 341 3.0 6.0 0.00 0.00 0.00 84 1009.1
20260505230704 50 9 3.0 8.0 0.00 0.00 0.00 83 1009.1
20260505230203 50 340 3.0 9.0 0.00 0.00 0.00 83 1009.1
20260505225704 50 337 2.0 3.0 0.00 0.00 0.00 83 1009.2
20260505224704 50 347 2.0 8.0 0.00 0.00 0.00 83 1009.2
20260505224204 50 326 3.0 7.0 0.00 0.00 0.00 83 1009.2
20260505223704 50 356 3.0 8.0 0.00 0.00 0.00 83 1009.3
20260505221704 50 352 2.0 7.0 0.00 0.00 0.00 83 1009.4
20260505221204 50 1 3.0 8.0 0.00 0.00 0.00 83 1009.4
20260505220704 50 9 3.0 10.0 0.00 0.00 0.00 83 1009.4
20260505220204 50 346 4.0 6.0 0.00 0.00 0.00 83 1009.5
20260505215704 50 342 3.0 8.0 0.00 0.00 0.00 83 1009.5
20260505215204 50 337 2.0 7.0 0.00 0.00 0.00 83 1009.6
20260505214704 50 3 3.0 12.0 0.00 0.00 0.00 83 1009.6
20260505214203 50 336 2.0 8.0 0.00 0.00 0.00 83 1009.7
20260505213705 50 346 3.0 8.0 0.00 0.00 0.00 84 1009.7
20260505213204 50 1 3.0 6.0 0.00 0.00 0.00 84 1009.7
20260505212704 51 24 3.0 6.0 0.00 0.00 0.00 84 1009.7
20260505211204 51 13 4.0 9.0 0.00 0.00 0.00 84 1009.7
20260505210704 51 9 2.0 9.0 0.00 0.00 0.00 84 1009.8
20260505210204 51 356 2.0 6.0 0.00 0.00 0.00 84 1009.8
20260505205705 51 18 5.0 9.0 0.00 0.00 0.00 84 1009.9
20260505205205 51 2 2.0 6.0 0.00 0.00 0.00 84 1010.0
20260505204702 51 16 5.0 9.0 0.00 0.00 0.00 84 1009.9
20260505204202 51 10 1.0 8.0 0.00 0.00 0.00 84 1009.9
20260505203703 51 343 1.0 10.0 0.00 0.00 0.00 84 1009.9
20260505202702 51 13 1.0 8.0 0.00 0.00 0.00 84 1010.0
20260505202202 51 25 3.0 10.0 0.00 0.00 0.00 84 1009.9
20260505201703 51 25 6.0 12.0 0.00 0.00 0.00 84 1009.9
20260505201202 51 28 4.0 10.0 0.00 0.00 0.00 84 1009.9
20260505200203 51 14 5.0 13.0 0.00 0.00 0.00 84 1009.8
20260505195703 51 28 4.0 10.0 0.00 0.00 0.00 83 1009.8
20260505195202 51 20 5.0 10.0 0.00 0.00 0.00 83 1009.8
20260505194702 51 358 3.0 7.0 0.00 0.00 0.00 83 1009.7
20260505194204 51 33 5.0 10.0 0.00 0.00 0.00 83 1009.7
20260505193703 51 28 5.0 9.0 0.00 0.00 0.00 83 1009.8
20260505193202 51 16 5.0 9.0 0.00 0.00 0.00 83 1009.8
20260505192702 51 34 3.0 10.0 0.00 0.00 0.00 83 1009.7
20260505192203 51 23 2.0 12.0 0.00 0.00 0.00 82 1009.7
20260505191703 51 1 3.0 12.0 0.00 0.00 0.00 82 1009.7
20260505191202 51 22 5.0 12.0 0.00 0.00 0.00 82 1009.6
20260505190702 51 356 4.0 8.0 0.00 0.00 0.00 82 1009.6
20260505190202 51 42 3.0 12.0 0.00 0.00 0.00 82 1009.6
20260505185703 51 20 2.0 7.0 0.00 0.00 0.00 82 1009.5
20260505183702 52 355 3.0 9.0 0.00 0.00 0.00 82 1009.6
20260505182703 52 23 2.0 8.0 0.00 0.00 0.00 81 1009.5
20260505182202 52 31 6.0 12.0 0.00 0.00 0.00 81 1009.5
20260505181702 52 351 2.0 9.0 0.00 0.00 0.00 81 1009.5
20260505181203 52 3 3.0 9.0 0.00 0.00 0.00 81 1009.5
20260505180703 52 34 5.0 12.0 0.00 0.00 0.00 81 1009.5
20260505180203 52 359 5.0 10.0 0.00 0.00 0.00 80 1009.6
20260505175703 52 356 3.0 10.0 0.00 0.00 0.00 80 1009.6
20260505175203 52 8 6.0 12.0 0.00 0.00 0.00 80 1009.6
20260505174703 52 3 5.0 12.0 0.00 0.00 0.00 80 1009.6
20260505174202 52 35 6.0 14.0 0.00 0.00 0.00 80 1009.6
20260505173702 52 24 5.0 12.0 0.00 0.00 0.00 79 1009.6
20260505172703 52 43 6.0 13.0 0.00 0.00 0.00 79 1009.6
20260505172203 53 13 6.0 12.0 0.00 0.00 0.00 79 1009.6
20260505171703 53 9 3.0 10.0 0.00 0.00 0.00 78 1009.6
20260505171203 53 6 6.0 12.0 0.00 0.00 0.00 78 1009.6
20260505170703 53 15 7.0 12.0 0.00 0.00 0.00 78 1009.6
20260505170203 53 5 5.0 10.0 0.00 0.00 0.00 78 1009.6
20260505165703 53 31 6.0 12.0 0.00 0.00 0.00 79 1009.7
20260505164203 53 1 3.0 10.0 0.00 0.00 0.00 79 1009.7
20260505163705 53 32 2.0 13.0 0.00 0.00 0.00 79 1009.7
20260505163203 53 9 2.0 8.0 0.00 0.00 0.00 79 1009.7
20260505162204 53 28 2.0 8.0 0.00 0.00 0.00 79 1009.7
20260505161203 53 15 2.0 10.0 0.00 0.00 0.00 79 1009.7
20260505160703 53 29 5.0 10.0 0.00 0.00 0.00 79 1009.8
20260505160203 54 29 3.0 8.0 0.00 0.00 0.00 79 1009.8
20260505153203 54 26 4.0 9.0 0.00 0.00 0.00 79 1009.8
20260505152704 54 33 5.0 9.0 0.00 0.00 0.00 79 1009.8
20260505152203 54 351 3.0 12.0 0.00 0.00 0.00 78 1009.8
20260505151703 54 2 3.0 9.0 0.00 0.00 0.00 78 1009.9
20260505151203 54 22 3.0 10.0 0.00 0.00 0.00 78 1009.9
20260505150703 54 4 2.0 9.0 0.00 0.00 0.00 78 1009.9
20260505124704 54 16 5.0 9.0 0.00 0.00 0.00 77 1010.7
20260505123704 54 52 5.0 13.0 0.00 0.00 0.00 78 1010.7
20260505123204 54 42 6.0 10.0 0.00 0.00 0.00 77 1010.7
20260505122704 54 38 7.0 12.0 0.00 0.00 0.00 76 1010.7
20260505122204 54 30 6.0 12.0 0.00 0.00 0.00 77 1010.7
20260505121204 54 34 3.0 12.0 0.00 0.00 0.00 77 1010.7
20260505120204 54 17 3.0 9.0 0.00 0.00 0.00 77 1010.6
20260505115704 54 53 3.0 12.0 0.00 0.00 0.00 76 1010.7
20260505115204 54 47 4.0 9.0 0.00 0.00 0.00 76 1010.7
20260505114704 54 354 4.0 12.0 0.00 0.00 0.00 76 1010.7
20260505114202 54 50 5.0 10.0 0.00 0.00 0.00 76 1010.7
20260505113702 54 43 2.0 12.0 0.00 0.00 0.00 76 1010.8
20260505113202 54 38 5.0 12.0 0.00 0.00 0.00 76 1010.9
20260505112203 54 48 3.0 13.0 0.00 0.00 0.00 75 1010.8
20260505111702 54 46 5.0 12.0 0.00 0.00 0.00 74 1010.8
20260505111202 55 52 6.0 10.0 0.00 0.00 0.00 74 1010.9
20260505110703 54 34 3.0 8.0 0.00 0.00 0.00 75 1010.9
20260505110202 53 30 5.0 10.0 0.00 0.00 0.00 75 1010.9
20260505102203 55 358 5.0 10.0 0.00 0.00 0.00 72 1011.1
20260505101702 56 31 2.0 9.0 0.00 0.00 0.00 70 1011.1
20260505100704 56 47 5.0 14.0 0.00 0.00 0.00 72 1010.9
20260505100202 54 351 3.0 12.0 0.00 0.00 0.00 75 1010.9
20260505095702 53 36 7.0 13.0 0.00 0.00 0.00 76 1011.0
20260505095203 53 349 5.0 10.0 0.00 0.00 0.00 77 1011.0
20260505094703 52 6 5.0 12.0 0.00 0.00 0.00 77 1011.0
20260505093703 53 354 4.0 10.0 0.00 0.00 0.00 78 1011.2
20260505093203 52 12 2.0 9.0 0.00 0.00 0.00 78 1011.2
20260505092703 52 340 7.0 12.0 0.00 0.00 0.00 79 1011.2
20260505092203 52 0 4.0 10.0 0.00 0.00 0.00 79 1011.2
20260505091703 51 16 4.0 12.0 0.00 0.00 0.00 80 1011.2
20260505091203 51 26 4.0 12.0 0.00 0.00 0.00 80 1011.2
20260505090703 51 352 4.0 12.0 0.00 0.00 0.00 80 1011.3
20260505085703 51 14 4.0 8.0 0.00 0.00 0.00 83 1011.4
20260505085202 51 10 2.0 5.0 0.00 0.00 0.00 83 1011.4
20260505084702 51 19 3.0 12.0 0.00 0.00 0.00 83 1011.4
20260505083703 50 13 5.0 9.0 0.00 0.00 0.00 84 1011.4
20260505083203 50 7 3.0 10.0 0.00 0.00 0.00 85 1011.5
20260505082704 50 28 3.0 8.0 0.00 0.00 0.00 85 1011.6